Location: Paineville
(37.8089°N, 89.0017°W)
Time: 18:34:50
(UTC+00:00)

Daily predictions for brighter satellites

Satellite Brightness Start Highest point End
(mag) Time Altitude Azimuth Time Altitude Azimuth Time Altitude Azimuth
Cosmos 1777 Rocket 4.0 23:28:01 10° N 23:33:11 60° ENE 23:38:18 10° SSE
Cosmos 1535 Rocket 4.4 23:27:29 10° N 23:33:39 75° E 23:39:44 10° SSE
Cosmos 44 3.9 23:29:25 10° S 23:34:03 38° ESE 23:38:29 10° NE
Cosmos 1300 3.9 23:36:07 10° SE 23:39:03 21° E 23:41:59 10° NE
Gbstr 26 Del rocket 4.3 23:33:37 10° NW 23:39:26 53° NE 23:46:31 10° ESE
Meteor 1-11 4.3 23:38:36 10° N 23:44:23 68° E 23:50:09 10° SSE
NOSS 3-2 (C) 3.5 23:39:43 10° S 23:45:07 51° ESE 23:51:07 10° NE
Cosmos 2058 Rocket 4.0 23:42:35 10° SSW 23:46:49 52° W 23:51:05 10° N
SMAP 3.9 23:45:10 10° S 23:49:43 55° W 23:54:17 10° NNW
Cosmos 1833 Rocket 2.7 23:44:42 10° NNW 23:50:17 60° ENE 23:55:48 10° SE
H-2A R/B 3.5 23:46:44 10° S 23:50:34 60° W 23:54:28 10° NNW
Cosmos 1328 4.3 23:50:12 10° NNW 23:54:07 64° W 23:57:59 10° S
